STARLINK-34857 (65102 NORAD) Tracking and Keplerian Element Data

This shows tracking and keplerian element data for the satellite.

Feedback or suggestion? Click here.




ElementValue
Catalog65102
NameSTARLINK-34857
Epoch Orbit2118
Epoch Day353.36131303
Epoch Year2025
RAAN39.5984
Inclination53.1591
Eccentricity0.0001473
Argument of Perigee144.5657
Mean Anonmoly215.5442
Mean Motion15.30210019
Decay Rate0.00011713
L11 65102U 25167AA 25353.36131303 .00011713 00000+0 40683-3 0 9999
L22 65102 53.1591 39.5984 0001473 144.5657 215.5442 15.30210019 21182



Live tracking and technical data element details for STARLINK-34857 (NORAD 65102). STARLINK-34857 can be tracked NOW for your location showing map with azimuth and elevation plus other details from your city location.







IsCatalogInMostPopularTable: catalog: 65102, numindb: 2
Update: records affected: 1



GetName: 65102 STARLINK-34857

Hit Count: updated at: Sun, 08 Feb 2026 16:18:34 GMT